This is the latest recevied weather packets stored in our database for station/object KC1TEM-13. If no packets are shown the sender has not sent any weather packets the latest 1 day(s).
| Time | Temp. | Humidity | Pressure | Rain* | Wind** | Luminosity | Snow |
|---|---|---|---|---|---|---|---|
| 1778042890 | 18.33° C | 58% | 1009.7 hPa | 0 mm | 0 m/s | 0 W/m² | - |
| 1778042588 | 18.33° C | 58% | 1009.7 hPa | 0 mm | 1.34 m/s, 218° | 0 W/m² | - |
| 1778042284 | 18.33° C | 58% | 1009.7 hPa | 0 mm | 2.24 m/s, 201° | 0 W/m² | - |
| 1778041982 | 18.33° C | 58% | 1009.6 hPa | 0 mm | 0.89 m/s, 337° | 0 W/m² | - |
| 1778041681 | 18.33° C | 58% | 1009.5 hPa | 0 mm | 1.34 m/s, 159° | 0 W/m² | - |
| 1778041379 | 18.33° C | 57% | 1009.6 hPa | 0 mm | 0 m/s | 0 W/m² | - |
| 1778041077 | 18.33° C | 57% | 1009.6 hPa | 0 mm | 3.13 m/s, 186° | 0 W/m² | - |
| 1778040774 | 18.33° C | 56% | 1009.7 hPa | 0 mm | 1.34 m/s, 59° | 0 W/m² | - |
| 1778040471 | 18.33° C | 56% | 1009.6 hPa | 0 mm | 1.79 m/s, 182° | 0 W/m² | - |
| 1778040168 | 18.33° C | 56% | 1009.5 hPa | 0 mm | 2.68 m/s, 219° | 0 W/m² | - |
| 1778039865 | 18.33° C | 56% | 1009.7 hPa | 0 mm | 0.89 m/s, 183° | 0 W/m² | - |
| 1778039561 | 18.89° C | 55% | 1009.4 hPa | 0 mm | 1.34 m/s, 227° | 0 W/m² | - |
| 1778039259 | 18.89° C | 55% | 1009.7 hPa | 0 mm | 0.89 m/s, 273° | 0 W/m² | - |
| 1778038956 | 18.89° C | 54% | 1009.6 hPa | 0 mm | 0.89 m/s, 196° | 0 W/m² | - |
| 1778038653 | 18.89° C | 54% | 1009.5 hPa | 0 mm | 1.79 m/s, 180° | 0 W/m² | - |
| 1778038350 | 18.89° C | 54% | 1009.5 hPa | 0 mm | 0 m/s | 0 W/m² | - |
| 1778038047 | 18.89° C | 54% | 1009.3 hPa | 0 mm | 0.89 m/s, 229° | 0 W/m² | - |
| 1778037743 | 18.89° C | 54% | 1009.6 hPa | 0 mm | 0 m/s | 0 W/m² | - |
| 1778037440 | 19.44° C | 53% | 1009.7 hPa | 0 mm | 0.89 m/s, 232° | 0 W/m² | - |
| 1778037138 | 19.44° C | 53% | 1009.7 hPa | 0 mm | 1.34 m/s, 193° | 0 W/m² | - |
| 1778036836 | 19.44° C | 53% | 1009.7 hPa | 0 mm | 1.34 m/s, 206° | 0 W/m² | - |
| 1778036533 | 19.44° C | 53% | 1009.4 hPa | 0 mm | 1.79 m/s, 202° | 0 W/m² | - |
| 1778036229 | 19.44° C | 52% | 1009.4 hPa | 0 mm | 0 m/s | 0 W/m² | - |
| 1778035926 | 20° C | 52% | 1009.6 hPa | 0 mm | 0.89 m/s, 222° | 0 W/m² | - |
| 1778035623 | 20° C | 52% | 1009.4 hPa | 0 mm | 0.45 m/s, 183° | 0 W/m² | - |
* Rain latest hour (hover to see other rain measurements)
** Current wind speed in m/s (hover to see current wind gust speed)